SCP
0 0 0 0 0 0 0 0 0 0 0 0 0 0 0 0 0 0 0 0 0 0 0 0 0 0 0 0 0 0 0 0 0 0 0 0 0 0 0 0 0 0 0 0
0 0 0 0 0 0 0 0 0 0 0 0 0 0 0 0 0 0 0 0 0 0 0 0 0 0 0 0 0 0 0 0 0 0 0 0 0 0 0 0 0 0 0 0
0 0 0 0 0 0 0 0 0 0 0 0 0 0 0 0 0 0 0 0 0 0 0 0 0 0 0 0 0 0 0 0 0 0 0 0 0 0 0 0 0 0 0 0
0 0 0 0 0 0 0 0 0 0 0 0 0 0 0 0 0 0 0 0 0 0 0 0 0 0 0 0 0 0 0 0 0 0 0 0 0 0 0 0 0 0 0 0
0 0 0 0 0 0 0 0 0 0 0 0 0 0 0 0 0 0 0 0 0 0 0 0 0 0 0 0 0 0 0 0 0 0 0 0 0 0 0 0 0 0 0 0
0 0 0 0 0 0 0 0 0 0 0 0 0 0 0 0 0 0 0 0 0 0 0 0 0 0 0 0 0 0 0 0 0 0 0 0 0 0 0 0 0 0 0 0
0 0 0 0 0 0 0 0 0 0 0 0 0 0 0 0 0 0 0 0 0 0 0 0 0 0 0 0 0 0 0 0 0 0 0 0 0 0 0 0 0 0 0 0
0 0 0 0 0 0 0 0 0 0 0 0 0 0 0 0 0 0 0 0 0 0 0 0 0 0 0 0 0 0 0 0 0 0 0 0 0 0 0 0 0 0 0 0
0 0 0 0 0 0 0 0 0 0 0 0 0 0 0 0 0 0 0 0 0 0 0 0 0 0 0 0 0 0 0 0 0 0 0 0 0 0 0 0 0 0 0 0
0 0 0 0 0 0 0 0 0 0 0 0 0 0 0 0 0 0 0 0 0 0 0 0 0 0 0 0 0 0 0 0 0 0 0 0 0 0 0 0 0 0 0 0
0 0 0 0 0 0 0 0 0 0 0 0 0 0 0 0 0 0 0 0 0 0 0 0 0 0 0 0 0 0 0 0 0 0 0 0 0 0 0 0 0 0 0 0
0 0 0 0 0 0 0 0 0 0 0 0 0 0 0 0 0 0 0 0 0 0 0 0 0 0 0 0 0 0 0 0 0 0 0 0 0 0 0 0 0 0 0 0
0 0 0 0 0 0 0 0 0 0 0 0 0 0 0 0 0 0 0 0 0 0 0 0 0 0 0 0 0 0 0 0 0 0 0 0 0 0 0 0 0 0 0 0
0 0 0 0 0 0 0 0 0 0 0 0 0 0 0 0 0 0 0 0 0 0 0 0 0 0 0 0 0 0 0 0 0 0 0 0 0 0 0 0 0 0 0 0
0 0 0 0 0 0 0 0 0 0 0 0 0 0 0 0 0 0 0 0 0 0 0 0 0 0 0 0 0 0 0 0 0 0 0 0 0 0 0 0 0 0 0 0
0 0 0 0 0 0 0 0 0 0 0 0 0 0 0 0 0 0 0 0 0 0 0 0 0 0 0 0 0 0 0 0 0 0 0 0 0 0 0 0 0 0 0 0
0 0 0 0 0 0 0 0 0 0 0 0 0 0 0 0 0 0 0 0 0 0 0 0 0 0 0 0 0 0 0 0 0 0 0 0 0 0 0 0 0 0 0 0
0 0 0 0 0 0 0 0 0 0 0 0 0 0 0 0 0 0 0 0 0 0 0 0 0 0 0 0 0 0 0 0 0 0 0 0 0 0 0 0 0 0 0 0
0 0 0 0 0 0 0 0 0 0 0 0 0 0 0 0 0 0 0 0 0 0 0 0 0 0 0 0 0 0 0 0 0 0 0 0 0 0 0 0 0 0 0 0
0 0 0 0 0 0 0 0 0 0 0 0 0 0 0 0 0 0 0 0 0 0 0 0 0 0 0 0 0 0 0 0 0 0 0 0 0 0 0 0 0 0 0 0
0 0 0 0 0 0 0 0 0 0 0 0 0 0 0 0 0 0 0 0 0 0 0 0 0 0 0 0 0 0 0 0 0 0 0 0 0 0 0 0 0 0 0 0
0 0 0 0 0 0 0 0 0 0 0 0 0 0 0 0 0 0 0 0 0 0 0 0 0 0 0 0 0 0 0 0 0 0 0 0 0 0 0 0 0 0 0 0
0 0 0 0 0 0 0 0 0 0 0 0 0 0 0 0 0 0 0 0 0 0 0 0 0 0 0 0 0 0 0 0 0 0 0 0 0 0 0 0 0 0 0 0
0 0 0 0 0 0 0 0 0 0 0 0 0 0 0 0 0 0 0 0 0 0 0 0 0 0 0 0 0 0 0 0 0 0 0 0 0 0 0 0 0 0 0 0
0 0 0 0 0 0 0 0 0 0 0 0 0 0 0 0 0 0 0 0 0 0 0 0 0 0 0 0 0 0 0 0 0 0 0 0 0 0 0 0 0 0 0 0
0 0 0 0 0 0 0 0 0 0 0 0 0 0 0 0 0 0 0 0 0 0 0 0 0 0 0 0 0 0 0 0 0 0 0 0 0 0 0 0 0 0 0 0
0 0 0 0 0 0 0 0 0 0 0 0 0 0 0 0 0 0 0 0 0 0 0 0 0 0 0 0 0 0 0 0 0 0 0 0 0 0 0 0 0 0 0 0
Wind_Speed
9 8 5 8 10 11 14 14 12 13 14 13 10 7 5 3 2 1 1 1 1 2 2 2 3 3 3 3 2 2 2 2 2 2 2 2 1 1 1 1 1 1 1 1
7 7 8 11 12 13 15 15 17 17 17 11 6 4 5 4 2 1 2 2 2 2 2 2 2 3 2 2 2 1 1 2 2 3 2 2 2 1 1 1 1 1 1 1
7 3 5 12 12 13 11 12 12 17 15 5 5 6 5 3 2 2 2 2 2 2 2 2 3 3 2 2 2 1 1 2 2 2 2 2 2 1 1 1 1 1 1 1
4 2 13 7 2 9 11 12 11 11 8 5 5 3 2 2 2 2 3 3 3 3 3 3 3 3 2 2 1 1 1 2 2 2 2 2 2 2 2 2 1 1 2 2
5 8 12 7 3 4 7 9 6 8 8 4 1 1 3 2 2 3 3 3 3 2 2 2 2 2 2 1 1 1 2 2 3 3 2 2 2 2 2 2 2 2 2 2
6 8 10 5 0 1 3 7 1 3 5 3 2 4 3 1 2 2 3 2 2 2 2 2 2 2 1 1 1 2 3 3 3 3 2 2 3 3 2 2 2 2 2 2
11 11 10 3 1 2 5 4 2 2 2 3 3 3 2 1 2 2 3 3 3 2 2 2 3 2 1 1 2 4 4 3 3 3 3 3 3 2 2 2 2 2 2 2
7 10 10 1 3 4 2 3 2 2 1 2 2 2 2 2 2 2 3 4 4 2 2 3 3 2 1 2 4 4 3 3 3 3 3 2 2 2 2 2 2 2 2 3
7 6 1 2 3 0 1 2 2 3 2 2 2 2 2 2 2 2 3 4 4 3 2 3 3 2 2 3 4 4 3 3 3 3 3 3 2 2 2 2 2 2 2 3
5 6 4 3 2 2 2 2 3 2 2 2 2 2 2 2 2 2 3 3 3 3 3 3 4 3 3 4 4 3 2 3 3 3 3 3 2 2 2 2 2 3 3 3
7 5 4 3 3 2 2 2 2 2 2 1 2 2 2 2 2 2 3 3 3 2 3 3 4 4 4 4 3 3 2 2 3 2 3 3 2 2 3 3 3 4 4 4
7 4 5 4 3 3 2 2 2 2 2 2 2 2 2 2 2 2 2 3 2 3 3 4 3 3 4 4 3 2 2 2 2 2 2 3 3 3 4 5 7 8 8 7
4 2 3 2 2 2 3 3 2 1 2 2 2 2 2 2 2 2 3 3 3 3 3 3 3 3 3 4 3 2 3 3 2 3 3 3 3 3 4 4 5 7 8 9
3 1 2 2 2 2 2 1 1 1 1 1 1 2 2 2 2 3 3 4 4 3 3 3 3 3 3 3 3 3 3 3 3 3 3 3 3 4 4 4 5 4 5 8
2 3 3 1 1 1 1 1 1 1 1 2 2 2 2 2 3 4 4 4 3 3 3 3 3 4 3 3 3 3 3 2 2 3 3 3 4 4 4 4 5 5 5 5
1 1 1 2 2 1 1 1 2 2 2 2 2 3 3 3 4 4 3 3 3 4 4 3 4 4 3 3 3 3 3 3 3 3 3 3 3 3 4 4 4 5 5 5
3 3 3 3 4 3 3 3 3 3 2 3 3 3 3 3 3 3 3 3 4 4 4 4 5 4 3 3 3 3 3 3 3 3 3 3 3 4 4 4 5 5 5 6
4 4 3 4 4 4 3 3 2 3 3 3 2 2 2 3 4 5 4 4 4 4 4 4 4 3 3 3 3 3 3 3 3 3 3 4 4 4 4 5 5 6 6 6
2 2 2 3 3 3 3 3 3 3 3 2 2 3 4 4 5 5 4 4 4 5 4 3 5 3 3 4 3 3 3 3 4 4 4 4 4 4 4 5 5 6 6 5
2 2 2 2 2 2 3 2 2 2 2 2 3 3 4 4 4 4 4 5 5 4 5 5 5 4 4 4 4 3 3 4 4 4 4 4 4 5 5 5 5 6 6 6
2 2 2 2 2 2 2 2 2 3 3 3 3 4 5 5 4 4 4 5 4 3 4 5 4 4 4 4 4 4 4 4 4 4 4 5 5 5 5 5 5 6 6 6
2 2 2 2 2 2 2 2 3 3 3 3 4 4 4 5 5 5 5 6 5 4 4 4 4 5 5 5 4 4 4 4 5 4 5 5 5 5 6 6 6 6 6 6
2 2 3 2 3 3 3 2 3 3 4 5 5 5 5 5 4 4 5 4 4 6 5 5 6 8 8 5 4 5 5 5 5 5 5 5 6 6 6 7 6 6 6 6
2 2 2 2 1 2 3 3 3 3 4 5 5 5 5 5 5 5 5 6 6 7 6 7 9 9 7 5 5 5 5 6 6 6 6 6 6 6 6 6 7 7 7 8
2 2 2 2 2 3 3 3 3 3 3 4 5 5 4 4 5 5 5 6 7 7 7 8 9 9 6 5 5 6 6 6 6 6 6 6 6 6 7 7 7 7 7 7
2 2 3 3 3 3 2 2 3 3 3 4 4 4 4 4 5 5 5 6 7 7 7 6 6 6 5 6 6 6 6 6 7 7 7 7 7 7 7 7 9 8 8 8
2 2 2 2 2 2 2 3 4 4 4 4 5 5 4 4 4 5 6 5 5 6 6 5 6 6 6 6 6 6 6 6 6 7 7 7 7 7 7 9 7 7 7 8
Wind_Direction
257 267 251 248 245 227 224 234 243 252 254 263 264 258 258 261 274 300 310 331 339 348 351 351 351 348 342 336 345 352 357 352 333 322 317 316 315 300 280 263 256 244 240 242
254 250 255 260 254 239 239 245 248 258 264 268 268 257 250 247 234 264 297 304 310 324 333 334 329 327 326 323 326 333 340 335 340 344 342 333 320 320 317 297 285 284 264 249
255 265 276 257 241 231 233 234 238 248 258 256 242 237 229 221 218 251 283 300 301 298 302 311 312 310 304 305 305 300 311 330 343 338 335 333 326 316 305 291 284 274 280 272
259 231 246 256 204 223 233 243 239 255 272 255 246 251 235 219 236 269 291 300 299 301 306 315 319 317 313 321 326 321 319 326 331 327 324 327 324 317 305 295 278 268 274 276
222 246 265 267 231 214 228 253 245 252 264 271 274 260 240 226 267 278 297 306 306 305 306 316 328 328 324 342 342 332 319 315 316 314 315 318 313 309 310 300 289 285 287 278
218 238 249 267 309 228 211 254 291 242 245 238 193 239 246 354 331 330 339 339 335 332 333 337 341 337 336 350 341 314 308 305 304 301 298 298 298 302 304 293 291 299 294 285
229 241 257 294 341 169 217 280 2 276 246 214 226 276 346 354 351 353 345 348 357 356 357 352 350 345 339 341 324 315 311 309 306 300 293 289 293 302 303 303 303 303 296 293
218 234 247 98 149 199 273 12 342 324 292 247 274 324 337 329 336 348 351 358 1 358 358 2 1 351 333 328 325 322 318 317 313 308 303 301 298 305 311 304 295 297 299 302
214 234 334 149 186 180 356 306 318 311 306 262 269 285 299 304 322 341 347 349 352 351 354 2 359 349 324 325 328 326 325 321 321 320 315 315 302 299 301 293 284 291 295 298
252 260 275 266 269 320 337 317 328 326 311 260 255 261 277 290 314 331 341 343 347 353 351 348 347 345 333 329 330 325 320 320 323 320 319 320 308 297 286 280 279 282 286 288
250 268 277 247 236 275 311 339 348 345 339 299 280 279 281 287 298 314 329 338 342 339 329 328 334 336 343 341 336 326 318 318 320 317 315 306 298 287 284 278 275 280 283 284
245 238 237 253 247 240 245 271 286 302 325 337 309 286 289 291 300 311 320 330 335 333 329 326 329 333 342 336 329 316 309 315 310 307 306 304 302 300 287 288 292 287 284 283
254 270 256 272 294 252 239 255 277 280 284 304 323 322 309 304 313 319 318 323 319 311 310 313 317 325 333 331 323 306 297 297 295 297 300 301 302 302 305 306 294 292 293 293
258 246 242 245 269 299 281 301 11 16 354 338 336 344 338 321 316 312 310 313 311 306 304 302 305 312 323 321 309 298 290 288 288 288 290 289 288 290 292 298 303 299 299 299
250 242 230 240 280 337 351 19 12 322 339 342 345 334 322 305 297 300 311 318 311 304 304 304 300 305 319 313 297 289 285 284 286 284 281 280 282 283 284 287 289 296 303 304
227 205 198 218 245 267 291 256 249 267 289 302 308 306 303 299 297 301 307 310 299 298 302 300 291 297 306 300 292 282 277 284 288 285 282 281 281 281 284 286 288 290 293 303
189 213 213 226 241 250 249 247 250 258 267 272 283 297 305 305 299 295 300 301 289 284 287 284 284 289 285 281 279 277 279 282 284 283 279 278 278 278 281 282 283 285 286 291
214 220 216 222 230 237 249 255 257 258 261 270 284 287 282 277 281 291 303 311 305 295 289 285 282 279 273 277 269 271 273 275 273 273 276 276 277 276 276 277 280 283 288 295
216 224 233 239 241 234 243 252 256 263 271 266 263 266 270 271 277 286 294 293 288 290 296 297 301 308 286 279 278 267 267 270 272 271 272 275 274 272 272 274 278 281 286 288
219 231 243 258 262 240 242 251 257 264 264 258 261 268 273 274 277 281 280 268 260 270 290 295 294 286 279 273 279 267 263 265 268 271 271 270 271 273 272 273 276 279 281 280
232 235 237 245 261 267 252 245 240 252 260 251 249 259 270 279 275 268 271 278 276 276 285 283 280 282 282 278 265 262 260 262 263 264 266 268 270 271 272 272 273 274 275 276
237 233 239 246 252 271 274 256 243 249 259 260 259 261 269 275 275 269 252 254 278 294 290 279 277 279 283 281 267 262 261 260 260 260 260 262 264 267 270 272 272 274 274 275
236 236 237 238 244 267 284 267 248 246 251 254 255 256 260 265 266 266 277 270 277 285 284 276 282 285 285 275 266 262 260 259 258 257 258 260 260 262 267 270 271 273 274 275
237 237 240 240 223 246 268 274 268 262 261 265 259 254 257 268 269 252 260 276 281 284 281 278 281 285 286 275 269 264 260 259 259 259 260 261 261 262 263 266 268 271 272 274
238 236 229 224 234 247 262 281 286 278 277 276 277 269 257 252 258 273 276 274 278 281 279 277 279 281 277 269 266 265 263 260 260 262 261 261 262 263 264 264 265 268 270 271
238 245 248 248 251 257 262 264 269 275 279 284 287 281 274 269 268 270 273 274 274 274 274 275 274 272 266 264 265 265 265 267 263 259 259 261 262 262 263 264 266 266 268 269
246 248 253 264 259 250 255 259 262 268 268 269 279 282 282 281 277 276 277 277 278 276 275 275 274 271 269 268 268 267 266 266 265 264 262 261 260 261 262 264 266 268 269 270